Location: Terrace Glenn Estates
(41.6050°N, 81.1556°W)
Time: 05:19:12
(UTC+00:00)

Daily predictions for brighter satellites

Satellite Brightness Start Highest point End
(mag) Time Altitude Azimuth Time Altitude Azimuth Time Altitude Azimuth
MOS 1-B 4.5 01:21:48 10° SSE 01:27:34 87° WSW 01:33:23 10° NNW
CSL-04 Rocket 3.7 01:23:11 10° SSE 01:28:28 87° WSW 01:33:50 10° NNW
IRIDIUM 104 4.5 01:24:34 10° N 01:29:44 60° E 01:34:53 10° SSE
SL-4 R/B 4.3 01:27:15 10° WNW 01:30:16 23° NNW 01:33:26 10° NE
Cosmos 1766 3.2 01:28:45 10° N 01:32:32 85° W 01:36:16 10° S
BREEZE-M DEB (TANK) 2.6 01:31:34 10° SW 01:34:21 65° SE 01:41:49 10° ENE
IRIDIUM 114 4.3 01:33:41 10° N 01:38:55 74° E 01:44:07 10° S
ARGOS Delta rocket 4.4 01:36:52 10° SE 01:40:58 37° ENE 01:45:00 10° N
Cosmos 1980 Rocket 2.8 01:35:45 10° NNW 01:41:18 56° WSW 01:46:48 10° S
Cosmos 2322 Rocket 3.6 01:38:33 10° N 01:43:10 25° NE 01:47:47 10° ESE
Cosmos 1441 Rocket 3.9 01:40:05 10° N 01:43:26 34° ENE 01:46:47 10° SE
Cosmos 1400 Rocket 4.0 01:40:44 10° SE 01:43:50 23° E 01:46:56 10° NE
COSMOS 2406 3.8 01:39:19 10° SW 01:45:01 64° WNW 01:50:45 10° NNE
Cosmos 1515 Rocket 3.6 01:40:56 10° S 01:45:15 86° W 01:49:37 10° N
Cosmos 1633 Rocket 4.3 01:43:05 10° NNW 01:47:13 42° W 01:51:19 10° SSW
IRIDIUM 103 4.4 01:42:49 10° N 01:48:04 89° E 01:53:17 10° S
Cosmos 1908 3.6 01:44:56 10° N 01:48:22 41° E 01:51:48 10° SSE
Okean-O 2.6 01:44:00 10° SSE 01:48:22 70° ENE 01:52:46 10° N
ATLAS CENTAUR R/B 2.1 01:45:53 10° SSE 01:48:41 23° ESE 01:51:32 10° ENE
Cosmos 468 Rocket 4.0 01:45:56 10° NNW 01:51:10 72° ENE 01:56:18 10° SSE
Ariane Rocket 4.3 01:49:25 10° ESE 01:53:35 26° ENE 01:57:46 10° N
Cosmos 2278 3.9 01:50:52 10° NNW 01:56:31 60° ENE 02:01:45 12° SE
USA 245 4.4 01:54:39 12° SE 01:57:26 29° ENE 02:01:10 10° N
ATLAS 2AS CENTAUR R/B 3.9 01:53:59 10° NNW 02:00:00 31° NE 02:05:51 10° ESE
Timation 1 Rocket 4.4 01:57:16 10° S 02:03:01 55° ESE 02:08:50 10° NE
Cosmos 2228 Rocket 4.3 02:02:00 13° SE 02:05:13 27° E 02:09:02 10° NNE
Cosmos 1470 2.8 02:01:41 10° NNW 02:05:22 74° W 02:09:03 10° S
Cosmos 1869 Rocket 3.9 02:01:28 10° N 02:05:50 52° E 02:09:37 13° SSE
Cosmos 540 Rocket 3.6 02:00:48 10° NNW 02:05:57 76° WSW 02:11:03 10° SSE
Meteor 1-13 Rocket 4.3 02:00:28 10° S 02:06:14 74° E 02:11:55 10° NNE
Cosmos 1553 Rocket 4.1 02:00:03 10° N 02:06:16 86° W 02:12:33 10° S
Cosmos 1850 Rocket 4.5 02:02:06 10° S 02:06:57 40° ESE 02:11:47 10° NE
Okean O Rocket 3.0 02:03:02 10° SSW 02:07:07 37° W 02:11:12 10° NNW
Cosmos 2219 Rocket 4.2 02:03:37 10° N 02:07:12 17° NE 02:10:46 10° E
BREEZE-M DEB (TANK) 4.2 02:05:57 10° NW 02:07:30 17° NNE 02:09:16 10° ENE
S3M 4.3 02:04:02 10° N 02:10:17 55° ENE 02:15:45 13° SSE
MOS 1 Rocket 4.3 02:07:54 14° SE 02:12:08 39° ENE 02:17:02 10° N
Cosmos 2237 4.3 02:07:52 10° NNW 02:13:38 73° ENE 02:18:21 15° SSE
MOS 1 4.4 02:09:28 10° S 02:15:06 76° WSW 02:20:46 10° NNW
Cosmos 2266 Rocket 4.1 02:10:53 10° S 02:17:07 68° E 02:23:29 10° NNE
Cosmos 968 Rocket 4.1 02:15:24 12° SSE 02:19:32 35° E 02:24:12 10° NE
SeaSat 1 2.7 02:18:09 17° SE 02:21:53 57° ENE 02:26:42 10° NNW
SPOT 3 Rocket 4.1 02:20:05 17° SE 02:23:45 44° ENE 02:28:38 10° N
Tiangong -0.6 02:21:11 10° W 02:23:49 24° SSW 02:24:57 19° S
Cosmos 1655 Rocket 4.3 02:17:55 11° SSE 02:23:54 53° E 02:30:05 10° NNE
IRS-1C Rocket 4.1 02:19:19 13° SSE 02:24:06 89° WSW 02:29:24 10° NNW
SPOT 5 2.8 02:22:14 12° S 02:26:14 67° WSW 02:30:36 10° NNW
Cosmos 1933 Rocket 4.3 02:22:34 10° NNW 02:26:53 51° W 02:31:10 10° S
SL-14 R/B 3.6 02:24:50 19° SSE 02:27:09 44° E 02:30:46 10° NNE
Cosmos 1741 Rocket 4.1 02:22:21 10° S 02:27:30 59° ESE 02:32:42 10° NNE
Cosmos 2360 Rocket 2.8 02:27:37 10° NNW 02:33:04 44° ENE 02:36:45 19° SE
In-Cosmos 22 4.4 02:27:29 10° SSW 02:33:06 73° W 02:38:38 10° N
Cosmos 1346 Rocket 3.5 02:30:54 10° N 02:34:29 35° ENE 02:36:07 24° ESE
Cosmos 1862 Rocket 4.1 02:33:48 22° SSE 02:36:06 40° E 02:40:14 10° NNE
Okean 3 4.4 02:34:34 23° SE 02:36:08 30° E 02:39:48 10° NNE
Resurs 01 Rocket 4.3 02:36:07 10° WSW 02:38:22 14° W 02:40:38 10° WNW
Meteor 1-23 Rocket 4.2 02:38:14 10° S 02:43:54 90° NW 02:49:39 10° N
SL-16 R/B 2.3 02:39:42 10° NNW 02:45:23 73° WSW 02:49:14 21° SSE
RESURS DK-1 2.2 02:43:25 10° NNW 02:47:30 89° ENE 02:49:28 30° SSE
Cosmos 2333 Rocket 2.6 02:44:10 10° NNW 02:49:50 56° ENE 02:53:10 24° SE
Meteor 1-15 Rocket 4.4 02:46:16 10° NNW 02:51:48 69° W 02:56:04 18° S
Helios 1B 4.5 02:47:35 10° NNE 02:51:55 87° ESE 02:55:07 18° SSW
SJ 16-02 1.5 02:50:26 27° SSE 02:52:24 49° ESE 02:56:35 10° NNE
ERS-1 Rocket 3.3 02:49:41 18° S 02:53:25 62° WSW 02:58:26 10° NNW
Cosmos 1707 Rocket 3.5 02:53:33 22° S 02:56:27 84° E 03:00:54 10° N
Cosmos 1758 3.2 02:52:52 10° N 02:56:47 89° WNW 02:58:34 32° S
Cosmos 841 Rocket 3.9 02:54:08 10° NNW 02:59:19 59° WSW 03:02:35 22° S
Terra 2.1 02:56:42 21° S 02:59:46 61° W 03:04:27 10° NNW
Cosmos 1833 4.1 02:54:34 10° SSW 03:00:11 76° ESE 03:05:49 10° NNE
SL-27 R/B 2.4 02:59:50 27° SW 03:01:04 54° WNW 03:03:49 10° N
Atlas Centaur 2 3.8 02:54:54 10° WSW 03:01:54 32° SSW 03:05:10 24° SSE
USA 234 3.7 02:58:18 10° NE 03:04:46 66° NW 03:11:13 10° WSW
Spot 2 Rocket 3.8 03:04:15 22° S 03:07:24 62° WSW 03:12:27 10° NNW
Aureole 3 3.3 03:06:44 37° S 03:08:15 73° E 03:12:56 10° NNE
Cosmos 2315 Rocket 4.1 03:01:59 10° N 03:08:23 79° W 03:12:38 22° S
SL-4 R/B 4.4 03:07:05 10° NW 03:10:02 20° N 03:13:06 10° NE
CZ-4C R/B 3.8 03:13:34 12° E 03:13:34 12° E 03:14:31 10° ENE
Cosmos 1300 2.9 03:08:40 10° NNW 03:12:10 56° W 03:13:23 35° SSW
Meteor 1-16 Rocket 4.4 03:07:01 10° N 03:12:55 63° ENE 03:15:43 31° SSE
Cosmos 1932 4.4 03:07:47 10° SSW 03:14:09 79° ESE 03:20:27 10° NE
ARIANE 5 R/B 4.1 03:15:40 21° E 03:16:52 24° ENE 03:20:19 10° NNE
Cosmos 2333 4.3 03:12:43 10° NNW 03:18:31 73° ENE 03:21:08 34° SE
Cosmos 1733 Rocket 3.2 03:14:50 10° NNW 03:19:13 68° W 03:21:04 33° SSW
Okean 1-7 3.1 03:19:44 44° SSE 03:20:52 61° E 03:25:08 10° NNE
Meteor 1-4 Rocket 1.9 03:21:00 87° W 03:21:00 87° W 03:24:00 10° N
Meteor 2-20 4.4 03:14:55 10° N 03:21:07 88° W 03:24:24 30° S
ATLAS CENTAUR R/B 3.3 03:23:17 10° WSW 03:26:13 25° NW 03:29:14 10° N
Cosmos 2322 Rocket 2.7 03:21:59 10° NNW 03:27:30 53° WSW 03:30:11 29° S
Okean 2 3.2 03:30:42 56° SSE 03:31:27 78° E 03:35:28 10° N
Cosmos 2297 Rocket 3.9 03:32:33 17° E 03:32:33 17° E 03:35:45 10° ENE
Ariane Rocket 4.0 03:29:26 21° SSW 03:32:18 38° W 03:37:03 10° NNW
Cosmos 1242 Rocket 3.7 03:34:06 23° NE 03:34:06 23° NE 03:35:28 10° NNE
Cosmos 1908 Rocket 3.8 03:29:48 10° N 03:34:03 53° E 03:34:47 46° ESE
GP-B 3.6 03:31:05 10° NNE 03:35:16 41° E 03:35:47 40° ESE
Cosmos 1315 Rocket 2.8 03:38:28 52° SSW 03:39:21 78° W 03:43:22 10° N
Cosmos 1953 2.0 03:37:13 10° N 03:41:03 73° E 03:41:18 69° ESE
BlueWalker 3 1.8 03:48:26 53° WSW 03:49:13 81° NW 03:52:59 10° NE
PSLV R/B 4.3 03:46:05 10° NNE 03:49:38 44° E 03:49:38 44° E
Cosmos 1745 Rocket 4.2 03:48:52 39° SSE 03:50:58 57° E 03:57:12 10° NNE
ATLAS 2AS CENTAUR R/B 2.8 03:44:40 10° NW 03:51:19 62° WSW 03:53:50 38° S
Cosmos 2219 Rocket 2.1 03:46:11 10° NNW 03:51:53 85° WSW 03:53:40 46° SSE
Cosmos 1300 Rocket 4.4 03:49:47 10° N 03:53:46 36° ENE 03:54:04 35° E
COSMOS 2428 3.3 03:49:17 10° NNW 03:54:49 49° ENE 03:56:49 34° ESE
USA 281 3.3 03:54:58 35° SE 03:57:49 66° ENE 04:04:21 10° NNW
SeaSat 1 4.3 03:57:51 16° SW 03:59:36 19° WSW 04:03:03 10° WNW
Cosmos 1408 4.1 04:03:14 22° NE 04:03:14 22° NE 04:04:34 10° NNE
Nadezhda 1 Rocket 4.0 03:56:05 10° N 04:02:21 69° E 04:04:20 44° SSE
Cosmos 1386 Rocket 4.4 04:00:17 41° S 04:02:39 82° E 04:08:53 10° N
Cosmos 1570 Rocket 4.0 03:59:37 10° NNW 04:04:59 74° ENE 04:06:15 52° SE
ALOS 2 3.9 04:06:37 26° E 04:07:15 27° ENE 04:10:57 10° N
Cosmos 158 Rocket 4.3 04:03:01 10° N 04:08:13 54° ENE 04:09:23 44° ESE
Cosmos 1455 2.7 04:06:48 10° NNW 04:09:56 47° WNW 04:09:56 47° WNW
Cosmos 1703 Rocket 4.1 04:11:48 44° SW 04:12:48 55° W 04:17:12 10° N
SL-24 R/B - RUBIN 2 4.5 04:10:13 10° NW 04:16:44 67° WSW 04:18:17 49° S
Cosmos 2360 Rocket 3.6 04:12:08 10° NW 04:16:46 26° WSW 04:18:30 23° SW
Cosmos 1703 4.4 04:18:25 31° ENE 04:18:25 31° ENE 04:20:54 10° NNE
H-2A R/B 2.6 04:22:37 65° E 04:22:44 66° ENE 04:26:59 10° N
COSMOS 2455 2.7 04:27:48 48° SSW 04:29:36 84° ESE 04:35:40 10° NNE
SJ 16-02 4.0 04:28:23 10° W 04:31:03 16° WNW 04:33:43 10° NNW
Cosmos 2242 Rocket 3.5 04:31:59 82° SSE 04:32:08 85° E 04:36:44 10° N
Cosmos 836 Rocket 4.4 04:27:30 10° NNW 04:32:44 79° ENE 04:33:30 64° SE
Cosmos 2333 Rocket 3.9 04:29:24 10° NW 04:33:38 21° W 04:35:10 19° WSW
NOSS 0 Rocket 4.0 04:33:33 10° NNW 04:39:49 76° ENE 04:41:34 49° SE
Cosmos 2208 Rocket 3.9 04:34:46 10° NNW 04:39:56 74° WSW 04:40:30 66° SSW
CZ-3 Stage 3 4.0 04:10:52 10° W 04:40:38 44° SSW 04:43:32 37° S
Cosmos 1825 4.3 04:45:15 16° ENE 04:45:15 16° ENE 04:46:31 10° NE
Cosmos 1777 Rocket 4.1 04:44:04 57° ESE 04:44:19 58° ESE 04:49:30 10° NNE
Cosmos 1503 Rocket 3.9 04:44:15 66° SSE 04:44:45 72° ESE 04:50:03 10° NNE
CENTAUR R/B 3.3 04:46:01 31° ESE 04:46:01 31° ESE 04:51:14 10° NE
SL-16 R/B 4.4 04:42:01 10° N 04:45:47 18° NE 04:49:33 10° E
SL-4 R/B 3.1 04:45:40 10° NW 04:49:33 42° NNE 04:50:42 34° ENE
Cosmos 371 Rocket 3.3 04:49:55 66° WSW 04:50:25 73° WNW 04:55:15 10° NNE
Cosmos 1709 Rocket 4.1 04:48:29 47° SSW 04:50:25 74° W 04:56:48 10° N
Cosmos 2237 Rocket 2.6 04:47:20 10° NNW 04:52:55 56° ENE 04:54:21 44° ESE
ARIANE 5 R/B 3.8 04:53:07 30° W 04:53:07 30° W 04:56:56 10° NW
Cosmos 2227 Rocket 2.7 04:55:36 43° ESE 04:55:46 43° ESE 05:01:07 10° NE
Cosmos 2322 4.2 04:51:16 10° NW 04:56:36 43° WSW 04:57:14 42° SW
CZ-4C R/B 2.1 04:58:35 50° W 04:59:31 61° NW 05:04:54 10° NNE
Meteor 1-24 Rocket 3.7 04:58:53 61° SSW 05:00:00 86° WNW 05:05:41 10° N
GEOS 3 Rocket 4.5 04:56:02 10° NE 04:59:59 33° E 04:59:59 33° E
Cosmos 2184 Rocket 4.5 05:04:30 42° SE 05:05:51 49° E 05:11:57 10° NNE
Cosmos 1980 3.7 05:00:32 10° NNW 05:06:14 77° ENE 05:07:17 59° SE
Okean 1 Rocket 4.3 05:03:18 10° NNE 05:07:12 31° ENE 05:07:20 31° E
PSLV R/B 3.6 05:10:23 10° NNE 05:14:11 72° NNE 05:14:11 72° NNE
Cosmos 2297 Rocket 2.3 05:14:18 50° SW 05:15:40 67° WNW 05:21:19 10° NNE
Cosmos 2084 Rocket 3.6 05:19:51 67° NNW 05:19:51 67° NNW 05:23:47 10° NNE
Cosmos 2219 3.9 05:19:41 37° ESE 05:19:51 37° ESE 05:24:58 10° NE
Cosmos 2154 Rocket 4.3 05:21:34 46° SE 05:22:54 54° E 05:28:59 10° NNE
Cosmos 783 Rocket 4.4 05:17:43 10° NNW 05:23:03 85° ENE 05:23:36 72° SE
H-2A R/B 2.2 05:22:31 10° NNE 05:26:17 66° NE 05:26:17 66° NE
Cosmos 1354 Rocket 4.2 05:26:08 56° WSW 05:26:59 66° WNW 05:32:17 10° NNE
BlueWalker 3 4.5 05:25:01 10° WNW 05:27:51 20° NNW 05:30:42 10° NNE
Cosmos 405 Rocket 3.7 05:26:25 10° NNW 05:29:10 41° NW 05:29:10 41° NW
Cosmos 2098 Rocket 4.2 05:25:31 10° NNW 05:32:00 60° W 05:33:21 49° SW
NOSS 3-2 (A) 3.6 05:34:24 43° ESE 05:34:24 43° ESE 05:39:42 10° NE
Cosmos 2219 Rocket 4.4 05:33:38 10° W 05:34:53 11° W 05:35:22 11° W
COSMOS 2428 4.1 05:34:13 10° NW 05:38:41 24° WSW 05:38:48 24° WSW
Cosmos 2151 Rocket 3.9 05:36:41 10° NNW 05:40:39 58° WNW 05:40:39 58° WNW
Cosmos 1455 Rocket 4.3 05:39:27 10° NNE 05:43:29 33° ENE 05:44:02 31° E
ALOS 2 4.0 05:44:00 27° W 05:44:00 27° W 05:47:15 10° NW
Cosmos 332 Rocket 4.0 05:43:54 59° W 05:44:20 62° WNW 05:49:12 10° NNE
Okean 2 Rocket 3.4 05:43:07 10° NNW 05:47:13 56° WNW 05:47:13 56° WNW
Cosmos 2263 Rocket 2.7 05:47:06 43° ESE 05:47:34 43° ESE 05:52:48 10° NE
Cosmos 1674 Rocket 4.1 05:48:08 48° WNW 05:48:08 48° WNW 05:52:13 10° N
Cosmos 1378 Rocket 4.4 05:48:39 39° WNW 05:48:39 39° WNW 05:52:45 10° N
Cosmos 1892 4.0 05:53:04 31° NW 05:53:04 31° NW 05:55:28 10° N
Cosmos 1025 Rocket 3.1 05:52:53 71° ENE 05:52:53 71° ENE 05:56:58 10° NNE
Cosmos 1610 Rocket 4.5 05:55:51 53° SSE 05:57:26 79° E 06:03:50 10° N
Cosmos 2181 Rocket 4.4 05:51:45 10° NNW 05:57:35 46° W 05:58:44 41° WSW
Cosmos 1328 4.3 06:02:28 53° NW 06:02:28 53° NW 06:05:44 10° N
Cosmos 2074 Rocket 4.3 06:03:57 44° SW 06:05:30 56° W 06:11:37 10° N
Cosmos 990 Rocket 4.0 06:08:04 57° WSW 06:08:47 64° WNW 06:13:54 10° NNE
SL-12 R/B(2) 4.3 06:07:20 35° SW 06:11:18 78° NW 06:20:55 10° NE
Cosmos 2341 Rocket 4.5 06:11:19 38° SE 06:13:18 51° E 06:19:17 10° NNE
Cosmos 1825 4.1 06:18:44 18° WNW 06:18:44 18° WNW 06:20:36 10° NNW
In-Cosmos 22 Rocket 4.3 06:19:43 52° SSE 06:21:07 73° E 06:26:56 10° NNE
IDEFIX/ARIANE 42P 3.9 06:21:46 10° NE 06:26:20 30° E 06:27:55 25° SE
SL-4 R/B 4.2 06:24:26 10° WNW 06:25:23 16° WNW 06:25:23 16° WNW
SL-16 R/B 2.1 06:24:52 10° NNW 06:30:35 80° WSW 06:32:00 52° S
Cosmos 1538 Rocket 4.0 06:26:22 10° NNW 06:31:30 62° WSW 06:32:02 58° SW
CENTAUR R/B 3.2 06:33:07 27° WSW 06:35:57 47° NW 06:42:38 10° NNE
Cosmos 2237 Rocket 3.7 06:32:26 10° NW 06:36:08 20° W 06:36:08 20° W
Cosmos 2082 3.7 06:36:51 51° SW 06:38:17 77° WNW 06:43:56 10° NNE
Cosmos 2227 Rocket 3.6 06:37:22 21° W 06:39:57 29° NW 06:44:51 10° N
CZ-2C R/B 4.1 06:36:30 12° SE 06:40:40 32° ENE 06:45:22 10° N
MOZ.5/SAFIR/RUBIN 5/SL-8 4.3 06:39:24 37° SE 06:40:58 55° ENE 06:45:30 10° N
Cosmos 372 Rocket 3.9 06:40:30 58° SSW 06:41:34 85° WNW 06:46:50 10° NNE
CZ-2D R/B 3.4 06:38:49 10° NE 06:43:28 30° E 06:45:38 22° SE
CRYOSAT 2 4.3 06:38:43 10° N 06:43:36 74° W 06:44:26 59° SW
Cosmos 1943 4.2 06:38:50 10° NNW 06:44:11 43° ENE 06:49:30 10° SE
USA 238 DEB 4.2 06:45:17 31° SSE 06:47:12 39° ESE 06:53:10 10° NE
USA 238 4.3 06:45:20 31° SSE 06:47:16 39° ESE 06:53:13 10° NE
Cosmos 2218 Rocket 4.0 06:45:40 40° S 06:48:02 75° E 06:54:14 10° N
Cosmos 1606 2.7 06:45:43 10° N 06:49:13 66° ENE 06:49:13 66° ENE
Cosmos 1867 4.5 06:49:37 31° SE 06:50:59 36° ESE 06:55:57 10° NE
Cosmos 2228 3.8 06:47:54 10° N 06:52:04 46° ENE 06:53:30 33° SE
Cosmos 2366 rocket 3.9 06:51:04 41° S 06:53:28 86° E 06:59:45 10° N
Cosmos 1544 Rocket 3.7 06:50:57 10° N 06:55:24 72° E 06:56:27 50° SSE
Meteor 1-11 4.3 06:56:29 44° SSW 06:58:18 70° W 07:04:06 10° N
H-2A R/B 4.0 06:54:54 10° NNE 06:58:44 44° E 06:59:27 40° SE
Cosmos 923 Rocket 3.9 06:54:11 10° NNW 06:59:27 82° WSW 07:01:11 43° S
Cosmos 1937 Rocket 3.6 07:00:05 46° SW 07:01:33 66° WNW 07:06:47 10° NNE
Aureole 1 Rocket 4.2 07:02:21 24° WNW 07:02:53 25° WNW 07:06:25 10° N
NPP 3.8 06:58:15 10° NNE 07:03:37 64° ESE 07:05:42 37° S
ADEOS II 3.5 06:59:03 10° NE 07:03:40 30° E 07:06:31 19° SE
Cosmos 2219 4.4 07:01:34 23° W 07:03:59 33° WNW 07:09:02 10° N
Cosmos 1975 Rocket 4.0 07:05:59 32° W 07:06:29 33° WNW 07:10:29 10° N
Cosmos 1898 Rocket 4.2 07:05:14 34° WSW 07:06:48 43° WNW 07:11:44 10° N
Cosmos 2227 4.2 07:11:34 40° SSW 07:13:46 80° ESE 07:19:32 10° NNE
Resurs 1-4 Rocket 2.2 07:14:29 10° NNE 07:19:46 69° ESE 07:22:10 33° S
Cosmos 1844 4.4 07:19:48 26° SSE 07:22:39 47° ESE 07:28:10 10° NE
Helios 1A Rocket 4.0 07:23:30 27° W 07:23:30 27° W 07:26:19 10° NW
SL-16 R/B 3.8 07:17:38 10° SE 07:23:21 40° ENE 07:29:05 10° N
SL-8 Rocket 4.4 07:21:49 32° SW 07:24:15 47° WNW 07:30:14 10° N
Cosmos 921 Rocket 4.3 07:22:09 10° N 07:26:07 37° ENE 07:30:00 10° SE
Cosmos 1461 4.2 07:28:39 24° W 07:29:56 29° NW 07:33:23 10° NNE
NOSS 3-2 (C) 3.6 07:28:54 29° WSW 07:31:27 56° NW 07:37:27 10° NNE
Cosmos 2263 Rocket 3.5 07:28:45 19° W 07:31:37 28° NW 07:36:22 10° N
COSMOS 2441 4.4 07:30:48 10° NNE 07:35:37 72° ESE 07:38:00 30° S
USA 267 3.9 07:29:41 10° ENE 07:35:51 43° SE 07:39:25 24° S
Cosmos 1536 Rocket 3.6 07:34:38 40° SW 07:36:02 63° W 07:40:26 10° N
Cosmos 1680 Rocket 3.8 07:36:14 10° NNW 07:41:10 46° WSW 07:43:08 31° SSW
Cosmos 2112 Rocket 4.1 07:38:55 10° NNW 07:43:57 52° WSW 07:46:21 29° SSW
Cosmos 2239 Rocket 4.5 07:40:53 23° S 07:44:51 84° E 07:51:01 10° N
Cosmos 1726 Rocket 4.5 07:41:37 10° N 07:45:54 47° ENE 07:50:09 10° SSE
Cosmos 1727 Rocket 4.0 07:40:23 10° N 07:46:43 76° W 07:51:19 20° S
Cosmos 1818 3.9 07:43:49 10° NW 07:48:57 42° WSW 07:51:34 25° SSW
Cosmos 1844 Rocket 2.6 07:47:26 28° SSW 07:50:30 90° WNW 07:56:06 10° NNE
SL-08 R/B 4.5 07:48:24 23° S 07:52:38 85° W 07:58:55 10° N
Cosmos 1437 Rocket 3.1 07:54:44 34° SW 07:55:56 47° WNW 07:59:37 10° N
Meteor 1-27 4.4 07:51:53 10° NNW 07:57:35 57° W 08:01:20 21° SSW
Delta 2 Rocket 4.0 07:57:55 30° S 07:57:57 30° S 08:01:37 10° SE
Cosmos 1000 Rocket 4.5 07:52:48 10° N 07:59:07 86° W 08:04:53 12° S
SEDSat Delta rocket 4.4 07:59:34 19° SSE 07:59:34 19° SSE 08:02:01 10° SE
IDEFIX/ARIANE 42P 3.5 08:01:08 10° N 08:05:50 34° WNW 08:08:41 20° WSW
ASTEX 1 3.3 08:04:21 16° S 08:08:17 84° W 08:13:11 10° N
CZ-2C R/B 4.3 08:10:10 10° NE 08:13:48 23° E 08:17:27 10° SSE
Timation 2 Rocket 4.3 08:08:32 16° S 08:13:53 67° ESE 08:20:14 10° NNE
Envisat 4.1 08:10:12 10° NNE 08:14:59 40° E 08:19:44 10° SSE
CZ-2C R/B 3.6 08:10:37 10° N 08:15:45 46° WNW 08:19:02 20° SW
Cosmos 1048 Rocket 3.9 08:11:45 10° NNW 08:17:00 84° WSW 08:22:17 10° SSE
Cosmos 1603 3.9 08:13:57 10° NNW 08:19:31 53° WSW 08:25:01 10° S
CZ-2C R/B 3.4 08:17:59 20° SW 08:20:50 33° W 08:25:39 10° NNW
CZ-2D R/B 3.0 08:18:41 10° N 08:23:28 35° WNW 08:26:55 17° WSW
Cosmos 1892 Rocket 3.6 08:22:12 18° SSW 08:25:21 66° W 08:29:46 10° N
Cosmos 1125 Rocket 3.5 08:21:21 17° SSW 08:25:28 88° WNW 08:30:48 10° NNE
Cosmos 1544 3.3 08:24:37 14° SSE 08:26:39 41° E 08:29:09 10° NNE
Cosmos 2058 Rocket 3.3 08:22:25 10° N 08:26:51 70° E 08:31:13 10° SSE
UNK 3.8 08:22:27 10° SSE 08:27:03 80° ENE 08:31:39 10° N
Cosmos 1943 4.1 08:23:19 10° NW 08:27:57 27° WSW 08:31:17 16° SSW
Cosmos 494 Rocket 4.3 08:24:39 10° NNW 08:29:37 45° WSW 08:34:35 10° S
FENGYUN 3A 4.1 08:25:08 10° N 08:30:15 46° WNW 08:34:19 16° SW
Cosmos 1607 3.9 08:25:23 10° NW 08:31:47 77° WSW 08:38:01 10° SSE
AQUA 4.4 08:32:54 10° N 08:37:21 42° WNW 08:40:58 15° SW
USA 238 DEB 4.3 08:32:42 13° WSW 08:38:01 42° NW 08:44:24 10° NNE
USA 238 4.3 08:32:45 13° WSW 08:38:04 42° NW 08:44:27 10° NNE
YAOGAN 6 4.2 08:36:26 10° NE 08:39:12 27° E 08:41:57 10° SSE
Cosmos 2150 Rocket 4.3 08:35:51 10° S 08:41:01 70° ESE 08:46:18 10° NNE
Cosmos 1812 2.6 08:38:37 10° NNW 08:42:08 55° W 08:45:36 10° S
Iridium 4 Rocket 3.2 08:37:53 10° N 08:42:24 85° W 08:47:19 10° S
ADEOS II 3.0 08:38:34 10° N 08:43:15 34° WNW 08:47:22 13° SW
ALOS 2.6 08:39:25 10° N 08:43:52 49° WNW 08:47:51 13° SW
Cosmos 1605 Rocket 4.0 08:38:52 10° S 08:45:04 90° NW 08:51:14 10° N
BlueWalker 3 4.4 08:43:12 10° NW 08:46:21 25° NNE 08:49:30 10° E
USA 81 4.2 08:46:15 10° NNW 08:51:24 56° W 08:56:32 10° SSW
Cosmos 1626 Rocket 3.8 08:47:00 10° S 08:51:24 75° E 08:55:49 10° NNE
SAR-Lupe-4 4.2 08:49:28 10° N 08:52:49 40° WNW 08:55:52 12° SW
Resurs 1-4 Rocket 3.9 08:55:44 10° NNW 08:58:57 17° WNW 09:02:11 10° W
ATLAS 5 CENTAUR R/B 1.1 08:56:45 10° SSW 08:59:56 64° ESE 09:03:23 10° NE
NOSS 2-3 (D) 4.0 08:56:42 10° SSW 09:00:13 45° ESE 09:03:54 10° NE
Cosmos 1782 3.2 08:56:54 10° N 09:00:43 62° E 09:04:30 10° SSE
Cosmos 1833 Rocket 3.9 08:58:37 10° NNW 09:04:04 48° ENE 09:09:30 10° SE
SL-16 R/B 3.2 09:01:21 10° SSW 09:06:56 34° W 09:12:33 10° NNW
Thor Agena Rocket 4.1 09:05:01 10° NNE 09:10:16 63° ESE 09:15:27 10° S
NOSS 2-2 (C) 2.8 09:07:57 10° SW 09:11:17 69° NW 09:14:23 10° NNE
Cosmos 2058 4.0 09:10:32 10° SW 09:14:01 28° WNW 09:17:35 10° NNW
CZ-4 R/B 4.1 09:11:26 10° N 09:16:17 60° WNW 09:21:10 10° SSW
Cosmos-2242 3.0 09:14:00 10° N 09:18:19 76° W 09:22:34 10° S
USA 267 3.7 09:12:35 10° NE 09:18:58 59° NW 09:25:20 10° WSW
Cosmos 1666 4.0 09:16:10 10° SSE 09:19:19 36° E 09:22:29 10° NNE
Meteor 2-3 Rocket 3.9 09:14:18 10° S 09:20:05 86° W 09:25:55 10° N
Cosmos 2298 Rocket 4.4 09:17:11 10° SW 09:22:21 51° WNW 09:27:33 10° N
Cosmos 614 Rocket 4.1 09:17:11 10° NNW 09:22:21 85° ENE 09:27:27 10° SSE
